This demonstration page uses our WeatherBlox Daily Observations layout. Learn more.

Left ArrowRight Arrow

Hourly Observations for April 11, 2021

Temp ( °F °C ) Dew Point ( °F °C ) Humidity (%) Winds ( mph kmh ) Pressure ( in mb ) Visibility ( mi km ) Precip ( " mm )
12:53 am 00:53 Cloudy 38 3.3 26 -3.3 62 62 W 8 13 29.86 1011 10 16 0.00 0.00
1:53 am 01:53 Cloudy 37 2.8 28 -2.2 70 70 NNW 17 28 29.88 1012 10 16 0.00 0.00
2:26 am 02:26 Cloudy 37 2.8 28 -2.2 70 70 NW 18 30 29.95 1014 10 16 0.00 0.00
2:53 am 02:53 Cloudy 36 2.2 27 -2.8 70 70 NW 17 28 29.92 1013 10 16 0.00 0.00
3:53 am 03:53 Cloudy 35 1.7 27 -2.8 72 72 NW 13 20 29.96 1015 10 16 0.00 0.00
4:53 am 04:53 Cloudy 34 1.1 26 -3.3 73 73 NW 18 30 30.01 1016 10 16 0.00 0.00
5:53 am 05:53 Cloudy 32 0 25 -3.9 75 75 NNW 23 37 30.06 1018 10 16 0.00 0.00
6:53 am 06:53 Cloudy 31 -0.6 24 -4.4 76 76 NW 20 31 30.09 1019 10 16 0.00 0.00
7:53 am 07:53 Cloudy 31 -0.6 24 -4.4 76 76 NW 15 24 30.13 1020 10 16 0.00 0.00
8:53 am 08:53 Cloudy 32 0 24 -4.4 73 73 NW 18 30 30.16 1022 10 16 0.00 0.00
9:53 am 09:53 Cloudy 33 0.6 25 -3.9 72 72 NW 16 26 30.18 1022 10 16 0.00 0.00
10:07 am 10:07 Cloudy 34 1.1 25 -3.9 70 70 WNW 14 22 30.21 1023 10 16 0.00 0.00
10:25 am 10:25 Cloudy 35 1.7 25 -3.9 67 67 NW 16 26 30.20 1023 10 16 0.00 0.00
10:53 am 10:53 Cloudy 34 1.1 25 -3.9 70 70 WNW 17 28 30.20 1023 10 16 0.00 0.00
11:10 am 11:10 Cloudy 34 1.1 25 -3.9 70 70 NW 18 30 30.23 1024 10 16 0.00 0.00
11:53 am 11:53 Cloudy 34 1.1 25 -3.9 70 70 WNW 14 22 30.22 1023 10 16 0.00 0.00
12:53 pm 12:53 Cloudy 33 0.6 26 -3.3 75 75 WNW 16 26 30.23 1024 10 16 0.00 0.00
1:53 pm 13:53 Cloudy 33 0.6 27 -2.8 78 78 WNW 17 28 30.24 1024 10 16 0.00 0.00
2:27 pm 14:27 Cloudy 33 0.6 27 -2.8 78 78 WNW 20 31 30.26 1025 10 16 0.00 0.00
2:53 pm 14:53 Cloudy 33 0.6 27 -2.8 78 78 WNW 17 28 30.25 1024 9 14 0.00 0.00
3:13 pm 15:13 Cloudy 34 1.1 27 -2.8 76 76 WNW 20 31 30.27 1025 10 16 0.00 0.00
3:53 pm 15:53 Cloudy 35 1.7 27 -2.8 72 72 WNW 17 28 30.25 1025 10 16 0.00 0.00
4:53 pm 16:53 Cloudy 37 2.8 25 -3.9 62 62 NW 16 26 30.26 1025 10 16 0.00 0.00
5:53 pm 17:53 Partly Cloudy 37 2.8 25 -3.9 62 62 NW 17 28 30.26 1025 10 16 0.00 0.00
6:53 pm 18:53 Partly Cloudy 37 2.8 24 -4.4 59 59 NW 16 26 30.26 1025 10 16 0.00 0.00
7:53 pm 19:53 Mostly Cloudy 37 2.8 24 -4.4 59 59 NW 14 22 30.27 1025 10 16 0.00 0.00
8:53 pm 20:53 Mostly Cloudy 34 1.1 24 -4.4 67 67 NW 8 13 30.29 1026 10 16 0.00 0.00
9:53 pm 21:53 Cloudy 32 0 24 -4.4 73 73 WNW 8 13 30.30 1026 10 16 0.00 0.00
10:53 pm 22:53 Mostly Cloudy 27 -2.8 22 -5.6 81 81 WNW 5 7 30.32 1027 10 16 0.00 0.00
11:53 pm 23:53 Cloudy 25 -3.9 21 -6.1 85 85 WNW 6 9 30.33 1027 10 16 0.00 0.00

Powered by AerisWeather